Globalstar M053

operational
NORAD ID: 25886 Int'l Des: 1999-043 Owner: GLOBT Country: US Constellation: globalstar
MEOCIRCULAR

关于 Globalstar M053

正在加载描述...

实时位置

正在加载3D地球...

即将过境

高度历史

Altitude vs Time

uPlot chart will show altitude changes over time

两行轨道根数

1 25886U 99043D 25277.74948697 -.00000054 00000-0 43519-3 0 9996
2 25886 51.9975 276.5861 0003329 272.2248 259.2341 11.27667469131804
Epoch: Oct 4, 2025 • Age: 12 hours

当前状态

高度 2031.0 km
速度 6.89 km/s
星下点 51.68°N, 112.57°W
发射日期 Aug 17, 1999
运行时间 26.1 years
类型 communications

技术详情

分类 Payload
质量 450.00 kg
干质量 380.00 kg
总质量 450.00 kg
长度 1.50 m
直径 0.60 m
跨度 12.00 m
形状 Box + 2 Pan
制造商 LOR
平台类型 LS-400
阶段状态 In Orbit
所有者/国家 GLOBT/US

大型星座

Loading constellations...